Location: Beddau
(51.5575°N, 3.3561°W)
Time: 13:55:57
(UTC+00:00)

Meteor 1-14 Rocket - Pass Details

Date: 03 March 2021
Orbit: 834 x 918 km, 81.3° (Epoch: 10 April)

Event Time Altitude Azimuth Distance (km) Brightness Sun altitude
Rises 19:22:13 0° 187° (S) 3,394 7.4 -13.9°
Reaches altitude 10° 19:24:38 10° 186° (S) 2,456 6.6 -14.3°
Maximum altitude 19:30:11 81° 101° (E) 853 4.1 -15.2°
Drops below altitude 10° 19:35:45 10° 14° (NNE) 2,459 6.6 -16.0°
Sets 19:38:10 0° 14° (NNE) 3,400 7.3 -16.4°
